"Pseudo-MPEC" for ML03838

Created 2025 May 27 17:31:06 UT using Find_Orb

Click here for an explanation of pseudo-MPECs

 
 Astrometry: 
     ML03838* C2025 05 02.66163113 56 41.394+01 44 39.57   ~5F42 22.13rWNEOCPO18
     ML03838  C2025 05 02.69763813 56 40.864+01 44 15.91   ~5F42 22.78gWNEOCPO18

Station data:
(O18) WFST, Lenghu  (N38.607601 E93.895220).

Orbital elements:  ML03838
   Perihelion 2025 Feb 24.58452 +/- 47.8 TT = 14:01:42 (JD 2460731.08452)
Epoch 2025 May  3.0 TT = JDT 2460798.5   Earth MOID: 0.0223   Ju: 0.2771
M   4.24995593 +/- 21               Ve: 0.0828   Ma: 0.0619   Sa: 0.8644
n   0.06304124 +/- 0.162            Peri.  305.24906 +/- 110     AutoNEOCP
a   6.25248807 +/- 10.7             Node   181.20934 +/- 57
e   0.8864224 +/- 0.249             Incl.    5.91952 +/- 3.3
P  15.63433                H 22.92  G  0.15   U 11.5  SR
q 0.71014217 +/- 0.439    Q 11.7948339 +/- 75             (J2000 ecliptic)
From 2 observations 2025 May 2 (51.9 min); mean residual 0".00
Residuals in arcseconds: 
250502 O18  .01+  .00     250502 O18  .01+  .00     

Ephemerides (geocentric):
Date (UTC) HH   RA             Dec           delta  r     elong  mag " sig PA
---- --------  ------------   ------------  ------ ------ -----  --- --------
2025 05 27 18  14 00 46.705   -01 58 05.36  .78670 1.7005 141.4 24.6  46d  86
2025 05 27 19  14 00 47.712   -01 58 25.34  .78744 1.7010 141.4 24.6  46d  86
2025 05 27 20  14 00 48.721   -01 58 45.31  .78818 1.7016 141.3 24.6  46d  86
2025 05 27 21  14 00 49.731   -01 59 05.29  .78893 1.7021 141.3 24.6  46d  85
2025 05 27 22  14 00 50.744   -01 59 25.26  .78967 1.7026 141.3 24.6  47d  85
2025 05 27 23  14 00 51.758   -01 59 45.22  .79041 1.7032 141.2 24.6  47d  85
2025 05 28 00  14 00 52.773   -02 00 05.19  .79116 1.7037 141.2 24.6  47d  85
2025 05 28 01  14 00 53.791   -02 00 25.15  .79190 1.7042 141.2 24.6  47d  85
2025 05 28 02  14 00 54.810   -02 00 45.11  .79265 1.7048 141.1 24.6  47d  85
2025 05 28 03  14 00 55.831   -02 01 05.07  .79339 1.7053 141.1 24.6  47d  85
2025 05 28 04  14 00 56.854   -02 01 25.03  .79414 1.7058 141.1 24.6  47d  85
2025 05 28 05  14 00 57.878   -02 01 44.98  .79488 1.7064 141.1 24.6  47d  85
2025 05 28 06  14 00 58.905   -02 02 04.93  .79563 1.7069 141.0 24.6  47d  85
2025 05 28 07  14 00 59.933   -02 02 24.88  .79637 1.7074 141.0 24.6  47d  85
2025 05 28 08  14 01 00.962   -02 02 44.83  .79712 1.7079 141.0 24.7  47d  85
2025 05 28 09  14 01 01.994   -02 03 04.77  .79786 1.7085 140.9 24.7  47d  85
2025 05 28 10  14 01 03.027   -02 03 24.72  .79861 1.7090 140.9 24.7  47d  85
2025 05 28 11  14 01 04.062   -02 03 44.65  .79936 1.7095 140.9 24.7  47d  85
2025 05 28 12  14 01 05.099   -02 04 04.59  .80010 1.7101 140.8 24.7  47d  85
2025 05 28 13  14 01 06.137   -02 04 24.53  .80085 1.7106 140.8 24.7  47d  85
2025 05 28 14  14 01 07.177   -02 04 44.46  .80160 1.7111 140.8 24.7  47d  85
2025 05 28 15  14 01 08.219   -02 05 04.39  .80235 1.7117 140.7 24.7  47d  85
2025 05 28 16  14 01 09.263   -02 05 24.32  .80309 1.7122 140.7 24.7  47d  85
2025 05 28 17  14 01 10.309   -02 05 44.24  .80384 1.7127 140.7 24.7  48d  85
2025 05 28 18  14 01 11.356   -02 06 04.17  .80459 1.7133 140.6 24.7  48d  85
2025 05 28 19  14 01 12.405   -02 06 24.09  .80534 1.7138 140.6 24.7  48d  85
2025 05 28 20  14 01 13.455   -02 06 44.01  .80609 1.7143 140.6 24.7  48d  85
2025 05 28 21  14 01 14.508   -02 07 03.92  .80684 1.7149 140.5 24.7  48d  85
2025 05 28 22  14 01 15.562   -02 07 23.84  .80759 1.7154 140.5 24.7  48d  85
2025 05 28 23  14 01 16.618   -02 07 43.75  .80834 1.7159 140.5 24.7  48d  85
2025 05 29 00  14 01 17.675   -02 08 03.66  .80908 1.7165 140.4 24.7  48d  85
2025 05 29 01  14 01 18.734   -02 08 23.57  .80983 1.7170 140.4 24.7  48d  85
2025 05 29 02  14 01 19.795   -02 08 43.47  .81059 1.7175 140.4 24.7  48d  85
2025 05 29 03  14 01 20.858   -02 09 03.38  .81134 1.7181 140.3 24.7  48d  85
2025 05 29 04  14 01 21.923   -02 09 23.28  .81209 1.7186 140.3 24.7  48d  85
2025 05 29 05  14 01 22.989   -02 09 43.18  .81284 1.7191 140.3 24.7  48d  85
2025 05 29 06  14 01 24.057   -02 10 03.07  .81359 1.7197 140.3 24.7  48d  86
2025 05 29 07  14 01 25.127   -02 10 22.97  .81434 1.7202 140.2 24.7  48d  86
2025 05 29 08  14 01 26.198   -02 10 42.86  .81509 1.7207 140.2 24.7  48d  86
2025 05 29 09  14 01 27.271   -02 11 02.75  .81584 1.7212 140.2 24.7  48d  86
2025 05 29 10  14 01 28.346   -02 11 22.64  .81660 1.7218 140.1 24.7  48d  86
2025 05 29 11  14 01 29.422   -02 11 42.52  .81735 1.7223 140.1 24.7  48d  86
2025 05 29 12  14 01 30.501   -02 12 02.40  .81810 1.7228 140.1 24.7  48d  86
2025 05 29 13  14 01 31.581   -02 12 22.29  .81885 1.7234 140.0 24.7  48d  86
2025 05 29 14  14 01 32.662   -02 12 42.16  .81961 1.7239 140.0 24.7  48d  86
2025 05 29 15  14 01 33.746   -02 13 02.04  .82036 1.7244 140.0 24.7  48d  86
2025 05 29 16  14 01 34.831   -02 13 21.92  .82111 1.7250 139.9 24.7  48d  86
2025 05 29 17  14 01 35.918   -02 13 41.79  .82187 1.7255 139.9 24.7  48d  86